Regional Weather Roundup
Issued by NWS

Home | Current Version | Previous Version | Text Only | Print | Product List | Glossary Off
Versions: 1 2 3 4 5 6 7 8 9 10 11 12 13 14 15 16 17 18 19 20 21 22 23 24 25 26 27 28 29 30 31 32 33 34 35 36 37 38 39 40 41 42 43 44 45 46 47 48 49 50

000
ASUS43 KIND 220609
RWRIN

WEATHER ROUNDUP FOR INDIANA
NATIONAL WEATHER SERVICE INDIANAPOLIS IN
200 AM EDT TUE AUG 22 2017

NOTE: "FAIR" INDICATES FEW OR NO CLOUDS BELOW 12,000 FEET WITH NO
SIGNIFICANT WEATHER AND/OR OBSTRUCTIONS TO VISIBILITY.

* - STATION DOES NOT REPORT WEATHER SUCH AS PRECIPITATION OR FOG.

+ - STATION NOT QUALITY CONTROLLED BY THE NATIONAL WEATHER SERVICE.
    USE DATA WITH CAUTION...ESPECIALLY DEWPOINT AND RELATIVE
    HUMIDITY OBSERVATIONS.

INZ001>003-010>013-019-020-220700-
NORTHWEST INDIANA

CITY           SKY/WX    TMP DP  RH WIND       PRES   REMARKS
GARY /AIRPORT/ RAIN      72  70  92 S5        29.89F
KNOX *+        CLOUDY    72  68  88 SW8       29.92F
LA PORTE +     TSTM      72  69  90 W13       29.96R
6HR MIN TEMP:  72; 6HR MAX TEMP:  80;

MICHIGAN CITY+ HVY RAIN  70  70 100 SW7G18    29.96R
MONTICELLO +   CLOUDY    73  69  87 S7        29.94F
6HR MIN TEMP:  73; 6HR MAX TEMP:  81;

RENSSELAER +   TSTM      72  64  78 W22G33    29.97R
VALPARAISO     LGT RAIN  73  71  93 W9        29.94S FOG
6HR MIN TEMP:  73; 6HR MAX TEMP:  82; 6HR PCP:  0.12;


$$

LMZ046-743>745-220700-
SOUTHERN LAKE MICHIGAN

STATION/POSITION TIME  TEMP    WIND        PRES    WAVE
                       AIR SEA DIR/SP/G            HT
                 (UTC) (F)     (DEG/KT/KT) (MB)    (FT)
BURNS HARBOR     0540   70     220/ 12/ 20 1013.5S
MICHIGAN CITY    0540   69     230/ 25/ 28   N/A
5NW MICH CITY    0600   71 74  210/ 16/ 19   N/A     3

$$

INZ004-005-014>016-021>024-220700-
NORTH CENTRAL INDIANA

CITY           SKY/WX    TMP DP  RH WIND       PRES   REMARKS
GOSHEN         CLOUDY    73  67  81 SW9       29.94F
6HR MIN TEMP:  73; 6HR MAX TEMP:  80;

LOGANSPORT +   CLOUDY    70  68  94 S7        29.96F
PERU/GRISSOM   CLOUDY    72  71  95 S8        29.96F
6HR MIN TEMP:  72; 6HR MAX TEMP:  80;

ROCHESTER +    CLOUDY    75  68  78 SW7       29.95F
SOUTH BEND     CLOUDY    73  71  93 SW9       29.93F
6HR MIN TEMP:  73; 6HR MAX TEMP:  81;

WARSAW +       CLOUDY    73  68  83 SW5       29.95F

$$

INZ006>009-017-018-025>027-220700-
NORTHEAST INDIANA

CITY           SKY/WX    TMP DP  RH WIND       PRES   REMARKS
AUBURN +       CLEAR     73  68  83 SW6       29.97F
FORT WAYNE     MOCLDY    71  68  90 SW8       29.98F
6HR MIN TEMP:  71; 6HR MAX TEMP:  82;

HUNTINGTON +   CLEAR     72  71  96 S5        29.97F
6HR MIN TEMP:  72; 6HR MAX TEMP:  79;


$$

INZ028-029-035-036-043>045-051>053-220700-
WEST CENTRAL INDIANA

CITY           SKY/WX    TMP DP  RH WIND       PRES   REMARKS
GREENCASTLE +  PTCLDY    72  68  88 S5        30.00F
LAFAYETTE      MOCLDY    72  69  90 VRB3      29.94F
6HR MIN TEMP:  72; 6HR MAX TEMP:  79;

TERRE HAUTE    CLOUDY    74  69  85 S10       29.98F
6HR MIN TEMP:  70; 6HR MAX TEMP:  76;


$$

INZ030>032-037>040-046>048-054>057-064-065-220700-
CENTRAL INDIANA

CITY           SKY/WX    TMP DP  RH WIND       PRES   REMARKS
CP ATTERBURY + PTCLDY    72  68  88 SW5       30.02F
FRANKFORT +    PTCLDY    72  70  93 CALM      30.00F
6HR MIN TEMP:  72; 6HR MAX TEMP:  79;

GREENWOOD *+   CLEAR    N/A N/A N/A S5        30.02F
INDIANAPOLIS   CLOUDY    73  70  90 S8        29.99F
6HR MIN TEMP:  73; 6HR MAX TEMP:  77;

-EAGLE CREEK   PTCLDY    74  70  87 CALM      30.00S
6HR MIN TEMP:  74; 6HR MAX TEMP:  79;

KOKOMO +       CLOUDY    72  69  90 S8        29.99F
6HR MIN TEMP:  71; 6HR MAX TEMP:  78;

MARION +       CLEAR     70  68  94 S7        29.99F FOG
MT COMFORT *+  PTCLDY    70  68  94 S3        30.02S
SHELBYVILLE    CLEAR     75  69  81 S8        30.00F
6HR MIN TEMP:  72; 6HR MAX TEMP:  78;

ZIONSVILLE +   CLOUDY    71  69  95 S6        30.00F
6HR MIN TEMP:  71; 6HR MAX TEMP:  76;


$$

INZ033-034-041-042-049-050-058-059-220700-
EAST CENTRAL INDIANA

CITY           SKY/WX    TMP DP  RH WIND       PRES   REMARKS
MUNCIE         CLEAR     76  68  76 S7        30.00F
6HR MIN TEMP:  76; 6HR MAX TEMP:  81;

RICHMOND +     CLOUDY    70  70 100 S6        30.04F FOG

$$

INZ060-061-067>069-081>083-085>088-220700-
SOUTHWEST INDIANA

CITY           SKY/WX    TMP DP  RH WIND       PRES   REMARKS
EVANSVILLE     CLEAR     77  72  84 SW6       30.02F
6HR MIN TEMP:  74; 6HR MAX TEMP:  78; 6HR PCP:  0.03;

HUNTINGBURG +  CLEAR     72  71  97 CALM      30.03F
6HR MIN TEMP:  72; 6HR MAX TEMP:  77; 6HR PCP:  0.02;

WASHINGTON +   PTCLDY    71  69  94 MISG      30.00F
6HR MIN TEMP:  70; 6HR MAX TEMP:  74; 6HR PCP:  0.01;


$$

INZ062-063-066-070>080-084-089>092-220700-
SOUTH CENTRAL AND SOUTHEAST INDIANA

CITY           SKY/WX    TMP DP  RH WIND       PRES   REMARKS
BLOOMINGTON    PTCLDY    74  68  81 S8        30.02F
6HR MIN TEMP:  72; 6HR MAX TEMP:  76;

MADISON *+     CLEAR     73  68  83 S3        30.06F
NORTH VERNON + CLEAR     75  68  78 S7        30.04F

$$





USA.gov is the U.S. government's official web portal to all federal, state and local government web resources and services.